User: anonymous   Login
Location: Theydon Bois
(51.6750°N, 0.1050°E)
Time: 07:16:57
(UTC+01:00)
Language:

Cosmos 921 Rocket - Orbit

View from above orbital plane
View from above orbital plane
View from above satellite
View from above satellite

Ground track
Ground track

The orbit data is extracted from the following two-line orbital elements,

1 10096U 77055B   18203.60243520 +.00000041 +00000-0 +66098-5 0  9995
2 10096 075.8345 008.3737 0043196 266.8846 092.7401 14.88627647221620
Epoch (UTC): 22 July 2018 14:27:30
Eccentricity: 0.0043196
inclination: 75.8345°
perigee height: 572 km
apogee height: 632 km
right ascension of ascending node: 8.3737°
argument of perigee: 266.8846°
revolutions per day: 14.88627647
mean anomaly at epoch: 92.7401°
orbit number at epoch: 22162

The dashed part of the orbit path shows where the satellite is in the earth's shadow,  

DLR